owner,sensor,date,latitude,longitude,vertical_datum,direction_of_sea_water_velocity,sea_water_speed,upward_sea_water_velocity,qcFlag 
TABS,ioos:station:wmo:42046:1,1999-08-01T00:00:00Z,27.8903,-94.0367,2.0,220.4988125,24.32878953,-99999.0,'11111222,11111222,99999999' 
TABS,ioos:station:wmo:42046:1,1999-08-01T00:30:00Z,27.8903,-94.0367,2.0,219.3402157,15.77466323,-99999.0,'11111222,11111222,99999999' 
TABS,ioos:station:wmo:42046:1,1999-08-01T01:00:00Z,27.8903,-94.0367,2.0,227.8620828,5.663920903,-99999.0,'11133222,11111222,99999999' 
TABS,ioos:station:wmo:42046:1,1999-08-01T01:30:00Z,27.8903,-94.0367,2.0,271.3863355,12.4036285,-99999.0,'11111222,11111222,99999999' 
TABS,ioos:station:wmo:42046:1,1999-08-01T02:00:00Z,27.8903,-94.0367,2.0,226.6132195,10.0448992,-99999.0,'11111222,11111222,99999999' 
TABS,ioos:station:wmo:42046:1,1999-08-01T02:30:00Z,27.8903,-94.0367,2.0,274.2895642,8.022468448,-99999.0,'11133222,11111222,99999999' 
TABS,ioos:station:wmo:42046:1,1999-08-01T03:00:00Z,27.8903,-94.0367,2.0,284.1580205,11.44770719,-99999.0,'11111222,11111222,99999999' 
TABS,ioos:station:wmo:42046:1,1999-08-01T03:30:00Z,27.8903,-94.0367,2.0,260.0196813,23.65797963,-99999.0,'11111222,11111222,99999999' 
TABS,ioos:station:wmo:42046:1,1999-08-01T04:00:00Z,27.8903,-94.0367,2.0,294.3196727,22.82542442,-99999.0,'11111222,11111222,99999999' 
TABS,ioos:station:wmo:42046:1,1999-08-01T04:30:00Z,27.8903,-94.0367,2.0,286.6313357,24.10850472,-99999.0,'11111222,11111222,99999999' 
TABS,ioos:station:wmo:42046:1,1999-08-01T05:00:00Z,27.8903,-94.0367,2.0,290.6211223,20.72800039,-99999.0,'11111222,11111222,99999999' 
TABS,ioos:station:wmo:42046:1,1999-08-01T05:30:00Z,27.8903,-94.0367,2.0,322.4317063,13.12097557,-99999.0,'11111222,11111222,99999999' 
TABS,ioos:station:wmo:42046:1,1999-08-01T06:00:00Z,27.8903,-94.0367,2.0,305.7070288,11.8224363,-99999.0,'11111222,11111222,99999999' 
TABS,ioos:station:wmo:42046:1,1999-08-01T06:30:00Z,27.8903,-94.0367,2.0,338.3179695,8.931965069,-99999.0,'11133222,11111222,99999999' 
TABS,ioos:station:wmo:42046:1,1999-08-01T07:00:00Z,27.8903,-94.0367,2.0,309.6293336,8.309632964,-99999.0,'11133222,11111222,99999999' 
TABS,ioos:station:wmo:42046:1,1999-08-01T07:30:00Z,27.8903,-94.0367,2.0,337.1317689,15.95399636,-99999.0,'11111222,11111222,99999999' 
TABS,ioos:station:wmo:42046:1,1999-08-01T08:00:00Z,27.8903,-94.0367,2.0,347.2962166,17.73414785,-99999.0,'11111222,11111222,99999999' 
TABS,ioos:station:wmo:42046:1,1999-08-01T08:30:00Z,27.8903,-94.0367,2.0,356.5008774,27.85192992,-99999.0,'11111222,11111222,99999999' 
TABS,ioos:station:wmo:42046:1,1999-08-01T09:00:00Z,27.8903,-94.0367,2.0,5.56529628,19.59234544,-99999.0,'11111222,11111222,99999999' 
TABS,ioos:station:wmo:42046:1,1999-08-01T09:30:00Z,27.8903,-94.0367,2.0,15.90328447,18.61236148,-99999.0,'11111222,11111222,99999999' 
TABS,ioos:station:wmo:42046:1,1999-08-01T10:00:00Z,27.8903,-94.0367,2.0,18.17818675,21.15585025,-99999.0,'11111222,11111222,99999999' 
TABS,ioos:station:wmo:42046:1,1999-08-01T10:30:00Z,27.8903,-94.0367,2.0,15.22660263,17.51485084,-99999.0,'11111222,11111222,99999999' 
TABS,ioos:station:wmo:42046:1,1999-08-01T11:00:00Z,27.8903,-94.0367,2.0,13.22145977,17.05197936,-99999.0,'11111222,11111222,99999999' 
TABS,ioos:station:wmo:42046:1,1999-08-01T11:30:00Z,27.8903,-94.0367,2.0,29.6548639,15.76483428,-99999.0,'11111222,11111222,99999999' 
TABS,ioos:station:wmo:42046:1,1999-08-01T12:00:00Z,27.8903,-94.0367,2.0,47.74380379,22.15784286,-99999.0,'11111222,11111222,99999999' 
TABS,ioos:station:wmo:42046:1,1999-08-01T12:30:00Z,27.8903,-94.0367,2.0,53.40076812,16.9401889,-99999.0,'11111222,11111222,99999999' 
TABS,ioos:station:wmo:42046:1,1999-08-01T13:00:00Z,27.8903,-94.0367,2.0,64.6803723,20.57668584,-99999.0,'11111222,11111222,99999999' 
TABS,ioos:station:wmo:42046:1,1999-08-01T13:30:00Z,27.8903,-94.0367,2.0,86.63354721,18.732325,-99999.0,'11111222,11111222,99999999' 
TABS,ioos:station:wmo:42046:1,1999-08-01T14:00:00Z,27.8903,-94.0367,2.0,82.36668726,19.57345141,-99999.0,'11111222,11111222,99999999' 
TABS,ioos:station:wmo:42046:1,1999-08-01T14:30:00Z,27.8903,-94.0367,2.0,85.89721267,23.76089224,-99999.0,'11111222,11111222,99999999' 
TABS,ioos:station:wmo:42046:1,1999-08-01T15:00:00Z,27.8903,-94.0367,2.0,108.1779763,14.10390017,-99999.0,'11111222,11111222,99999999' 
TABS,ioos:station:wmo:42046:1,1999-08-01T15:30:00Z,27.8903,-94.0367,2.0,95.33214641,15.06519167,-99999.0,'11111222,11111222,99999999' 
TABS,ioos:station:wmo:42046:1,1999-08-01T16:00:00Z,27.8903,-94.0367,2.0,109.6832815,13.06330739,-99999.0,'11111222,11111222,99999999' 
TABS,ioos:station:wmo:42046:1,1999-08-01T16:30:00Z,27.8903,-94.0367,2.0,107.9124675,10.40432602,-99999.0,'11111222,11111222,99999999' 
TABS,ioos:station:wmo:42046:1,1999-08-01T17:00:00Z,27.8903,-94.0367,2.0,94.84398905,5.921148537,-99999.0,'11133222,11111222,99999999' 
TABS,ioos:station:wmo:42046:1,1999-08-01T17:30:00Z,27.8903,-94.0367,2.0,97.05783015,10.58017013,-99999.0,'11111222,11111222,99999999' 
TABS,ioos:station:wmo:42046:1,1999-08-01T18:00:00Z,27.8903,-94.0367,2.0,79.87535202,2.844292531,-99999.0,'11133222,11111222,99999999' 
TABS,ioos:station:wmo:42046:1,1999-08-01T18:30:00Z,27.8903,-94.0367,2.0,232.0009355,4.060788101,-99999.0,'11133222,11111222,99999999' 
TABS,ioos:station:wmo:42046:1,1999-08-01T19:00:00Z,27.8903,-94.0367,2.0,287.354405,1.676305461,-99999.0,'11133222,11111222,99999999' 
TABS,ioos:station:wmo:42046:1,1999-08-01T19:30:00Z,27.8903,-94.0367,2.0,183.0445609,9.41328848,-99999.0,'11133222,11111222,99999999' 
TABS,ioos:station:wmo:42046:1,1999-08-01T20:00:00Z,27.8903,-94.0367,2.0,150.1797867,9.451454914,-99999.0,'11133222,11111222,99999999' 
TABS,ioos:station:wmo:42046:1,1999-08-01T20:30:00Z,27.8903,-94.0367,2.0,206.5647786,9.615092303,-99999.0,'11133222,11111222,99999999' 
TABS,ioos:station:wmo:42046:1,1999-08-01T21:00:00Z,27.8903,-94.0367,2.0,202.9318364,2.823118843,-99999.0,'11133222,11111222,99999999' 
TABS,ioos:station:wmo:42046:1,1999-08-01T21:30:00Z,27.8903,-94.0367,2.0,227.3856228,10.19117265,-99999.0,'11111222,11111222,99999999' 
TABS,ioos:station:wmo:42046:1,1999-08-01T22:00:00Z,27.8903,-94.0367,2.0,257.195343,6.768308504,-99999.0,'11133222,11111222,99999999' 
TABS,ioos:station:wmo:42046:1,1999-08-01T22:30:00Z,27.8903,-94.0367,2.0,214.6948619,7.90569415,-99999.0,'11133222,11111222,99999999' 
TABS,ioos:station:wmo:42046:1,1999-08-01T23:00:00Z,27.8903,-94.0367,2.0,231.8424417,1.780449381,-99999.0,'11133222,11111222,99999999' 
TABS,ioos:station:wmo:42046:1,1999-08-01T23:30:00Z,27.8903,-94.0367,2.0,243.7254284,8.810221337,-99999.0,'11133222,11111222,99999999' 
TABS,ioos:station:wmo:42046:1,1999-08-02T00:00:00Z,27.8903,-94.0367,2.0,258.3102372,8.884255737,-99999.0,'11133222,11111222,99999999' 
TABS,ioos:station:wmo:42046:1,1999-08-02T00:30:00Z,27.8903,-94.0367,2.0,202.2324747,14.80033783,-99999.0,'11111222,11111222,99999999' 
TABS,ioos:station:wmo:42046:1,1999-08-02T01:00:00Z,27.8903,-94.0367,2.0,237.3804123,8.904493248,-99999.0,'11133222,11111222,99999999' 
TABS,ioos:station:wmo:42046:1,1999-08-02T01:30:00Z,27.8903,-94.0367,2.0,247.3505047,15.06154043,-99999.0,'11111222,11111222,99999999' 
TABS,ioos:station:wmo:42046:1,1999-08-02T02:00:00Z,27.8903,-94.0367,2.0,243.0339277,6.395310782,-99999.0,'11133222,11111222,99999999' 
TABS,ioos:station:wmo:42046:1,1999-08-02T02:30:00Z,27.8903,-94.0367,2.0,241.3891863,3.758989226,-99999.0,'11133222,11111222,99999999' 
TABS,ioos:station:wmo:42046:1,1999-08-02T03:00:00Z,27.8903,-94.0367,2.0,272.2030139,7.805767099,-99999.0,'11133222,11111222,99999999' 
TABS,ioos:station:wmo:42046:1,1999-08-02T03:30:00Z,27.8903,-94.0367,2.0,242.4676667,10.60047169,-99999.0,'11111222,11111222,99999999' 
TABS,ioos:station:wmo:42046:1,1999-08-02T04:00:00Z,27.8903,-94.0367,2.0,266.6977211,10.41729331,-99999.0,'11111222,11111222,99999999' 
TABS,ioos:station:wmo:42046:1,1999-08-02T04:30:00Z,27.8903,-94.0367,2.0,281.8340386,10.72800075,-99999.0,'11111222,11111222,99999999' 
TABS,ioos:station:wmo:42046:1,1999-08-02T05:00:00Z,27.8903,-94.0367,2.0,279.0906766,10.12719112,-99999.0,'11111222,11111222,99999999' 
TABS,ioos:station:wmo:42046:1,1999-08-02T05:30:00Z,27.8903,-94.0367,2.0,302.5420984,12.45552086,-99999.0,'11111222,11111222,99999999' 
TABS,ioos:station:wmo:42046:1,1999-08-02T06:00:00Z,27.8903,-94.0367,2.0,336.8794159,9.67729301,-99999.0,'11133222,11111222,99999999' 
TABS,ioos:station:wmo:42046:1,1999-08-02T06:30:00Z,27.8903,-94.0367,2.0,349.3463328,10.27715914,-99999.0,'11111222,11111222,99999999' 
TABS,ioos:station:wmo:42046:1,1999-08-02T07:00:00Z,27.8903,-94.0367,2.0,341.7917686,8.000624976,-99999.0,'11133222,11111222,99999999' 
TABS,ioos:station:wmo:42046:1,1999-08-02T07:30:00Z,27.8903,-94.0367,2.0,352.8752108,26.60545057,-99999.0,'11111222,11111222,99999999' 
TABS,ioos:station:wmo:42046:1,1999-08-02T08:00:00Z,27.8903,-94.0367,2.0,347.2247734,17.63660965,-99999.0,'11111222,11111222,99999999' 
TABS,ioos:station:wmo:42046:1,1999-08-02T08:30:00Z,27.8903,-94.0367,2.0,355.2923692,8.528774824,-99999.0,'11133222,11111222,99999999' 
TABS,ioos:station:wmo:42046:1,1999-08-02T09:00:00Z,27.8903,-94.0367,2.0,12.84085944,13.94883508,-99999.0,'11111222,11111222,99999999' 
TABS,ioos:station:wmo:42046:1,1999-08-02T09:30:00Z,27.8903,-94.0367,2.0,352.0109024,5.755866572,-99999.0,'11133222,11111222,99999999' 
TABS,ioos:station:wmo:42046:1,1999-08-02T10:00:00Z,27.8903,-94.0367,2.0,12.72453639,6.356099433,-99999.0,'11133222,11111222,99999999' 
TABS,ioos:station:wmo:42046:1,1999-08-02T10:30:00Z,27.8903,-94.0367,2.0,40.10102423,9.935793879,-99999.0,'11133222,11111222,99999999' 
TABS,ioos:station:wmo:42046:1,1999-08-02T11:00:00Z,27.8903,-94.0367,2.0,40.08985549,20.65260274,-99999.0,'11111222,11111222,99999999' 
TABS,ioos:station:wmo:42046:1,1999-08-02T11:30:00Z,27.8903,-94.0367,2.0,52.80418557,14.06022759,-99999.0,'11111222,11111222,99999999' 
TABS,ioos:station:wmo:42046:1,1999-08-02T12:00:00Z,27.8903,-94.0367,2.0,41.63365244,15.65407295,-99999.0,'11111222,11111222,99999999' 
TABS,ioos:station:wmo:42046:1,1999-08-02T12:30:00Z,27.8903,-94.0367,2.0,54.13417159,18.26280373,-99999.0,'11111222,11111222,99999999' 
TABS,ioos:station:wmo:42046:1,1999-08-02T13:00:00Z,27.8903,-94.0367,2.0,69.9048158,17.46310396,-99999.0,'11111222,11111222,99999999' 
TABS,ioos:station:wmo:42046:1,1999-08-02T13:30:00Z,27.8903,-94.0367,2.0,49.60639231,14.96829984,-99999.0,'11111222,11111222,99999999' 
TABS,ioos:station:wmo:42046:1,1999-08-02T14:00:00Z,27.8903,-94.0367,2.0,76.75951105,15.71782428,-99999.0,'11111222,11111222,99999999' 
TABS,ioos:station:wmo:42046:1,1999-08-02T14:30:00Z,27.8903,-94.0367,2.0,106.9157205,20.27732724,-99999.0,'11111222,11111222,99999999' 
TABS,ioos:station:wmo:42046:1,1999-08-02T15:00:00Z,27.8903,-94.0367,2.0,84.45469566,10.34842983,-99999.0,'11111222,11111222,99999999' 
TABS,ioos:station:wmo:42046:1,1999-08-02T15:30:00Z,27.8903,-94.0367,2.0,91.81829871,6.303173804,-99999.0,'11133222,11111222,99999999' 
TABS,ioos:station:wmo:42046:1,1999-08-02T16:00:00Z,27.8903,-94.0367,2.0,69.51303371,9.714422268,-99999.0,'11133222,11111222,99999999' 
TABS,ioos:station:wmo:42046:1,1999-08-02T16:30:00Z,27.8903,-94.0367,2.0,87.73205077,10.10791769,-99999.0,'11111222,11111222,99999999' 
TABS,ioos:station:wmo:42046:1,1999-08-02T17:00:00Z,27.8903,-94.0367,2.0,80.6900816,6.181423784,-99999.0,'11133222,11111222,99999999' 
TABS,ioos:station:wmo:42046:1,1999-08-02T17:30:00Z,27.8903,-94.0367,2.0,103.240489,3.492849839,-99999.0,'11133222,11111222,99999999' 
TABS,ioos:station:wmo:42046:1,1999-08-02T18:00:00Z,27.8903,-94.0367,2.0,47.95087744,6.868041933,-99999.0,'11133222,11111222,99999999' 
TABS,ioos:station:wmo:42046:1,1999-08-02T18:30:00Z,27.8903,-94.0367,2.0,111.8013585,7.53923073,-99999.0,'11133222,11111222,99999999' 
TABS,ioos:station:wmo:42046:1,1999-08-02T19:00:00Z,27.8903,-94.0367,2.0,103.6611218,14.81924425,-99999.0,'11111222,11111222,99999999' 
TABS,ioos:station:wmo:42046:1,1999-08-02T19:30:00Z,27.8903,-94.0367,2.0,141.5196813,9.963934966,-99999.0,'11133222,11111222,99999999' 
TABS,ioos:station:wmo:42046:1,1999-08-02T20:00:00Z,27.8903,-94.0367,2.0,194.9311718,3.104834939,-99999.0,'11133222,11111222,99999999' 
TABS,ioos:station:wmo:42046:1,1999-08-02T20:30:00Z,27.8903,-94.0367,2.0,197.5253169,3.984971769,-99999.0,'11133222,11111222,99999999' 
TABS,ioos:station:wmo:42046:1,1999-08-02T21:00:00Z,27.8903,-94.0367,2.0,141.7888535,11.96327714,-99999.0,'11111222,11111222,99999999' 
TABS,ioos:station:wmo:42046:1,1999-08-02T21:30:00Z,27.8903,-94.0367,2.0,154.4624149,9.974467404,-99999.0,'11133222,11111222,99999999' 
TABS,ioos:station:wmo:42046:1,1999-08-02T22:00:00Z,27.8903,-94.0367,2.0,160.7871627,13.978555,-99999.0,'11111222,11111222,99999999' 
TABS,ioos:station:wmo:42046:1,1999-08-02T22:30:00Z,27.8903,-94.0367,2.0,187.4500212,13.11068267,-99999.0,'11111222,11111222,99999999' 
TABS,ioos:station:wmo:42046:1,1999-08-02T23:00:00Z,27.8903,-94.0367,2.0,187.5612003,11.39912277,-99999.0,'11111222,11111222,99999999' 
TABS,ioos:station:wmo:42046:1,1999-08-02T23:30:00Z,27.8903,-94.0367,2.0,177.7091849,5.003998401,-99999.0,'11133222,11111222,99999999' 
TABS,ioos:station:wmo:42046:1,1999-08-03T00:00:00Z,27.8903,-94.0367,2.0,209.2485475,8.595929269,-99999.0,'11133222,11111222,99999999' 
TABS,ioos:station:wmo:42046:1,1999-08-03T00:30:00Z,27.8903,-94.0367,2.0,187.3735387,8.570880935,-99999.0,'11133222,11111222,99999999' 
TABS,ioos:station:wmo:42046:1,1999-08-03T01:00:00Z,27.8903,-94.0367,2.0,181.0048732,5.700877125,-99999.0,'11133222,11111222,99999999' 
TABS,ioos:station:wmo:42046:1,1999-08-03T01:30:00Z,27.8903,-94.0367,2.0,171.0271839,7.694153625,-99999.0,'11133222,11111222,99999999' 
TABS,ioos:station:wmo:42046:1,1999-08-03T02:00:00Z,27.8903,-94.0367,2.0,224.9996843,5.798275606,-99999.0,'11133222,11111222,99999999' 
TABS,ioos:station:wmo:42046:1,1999-08-03T02:30:00Z,27.8903,-94.0367,2.0,177.9543858,2.801785145,-99999.0,'11133222,11111222,99999999' 
TABS,ioos:station:wmo:42046:1,1999-08-03T03:00:00Z,27.8903,-94.0367,2.0,209.5004452,8.732124598,-99999.0,'11133222,11111222,99999999' 
TABS,ioos:station:wmo:42046:1,1999-08-03T03:30:00Z,27.8903,-94.0367,2.0,243.43459,10.95673309,-99999.0,'11111222,11111222,99999999' 
TABS,ioos:station:wmo:42046:1,1999-08-03T04:00:00Z,27.8903,-94.0367,2.0,243.7995255,14.04279175,-99999.0,'11111222,11111222,99999999' 
TABS,ioos:station:wmo:42046:1,1999-08-03T04:30:00Z,27.8903,-94.0367,2.0,260.6466217,8.614522622,-99999.0,'11133222,11111222,99999999' 
TABS,ioos:station:wmo:42046:1,1999-08-03T05:00:00Z,27.8903,-94.0367,2.0,294.4043355,11.85959527,-99999.0,'11111222,11111222,99999999' 
TABS,ioos:station:wmo:42046:1,1999-08-03T05:30:00Z,27.8903,-94.0367,2.0,303.5732408,13.56244816,-99999.0,'11111222,11111222,99999999' 
TABS,ioos:station:wmo:42046:1,1999-08-03T06:00:00Z,27.8903,-94.0367,2.0,317.1672253,13.09083649,-99999.0,'11111222,11111222,99999999' 
TABS,ioos:station:wmo:42046:1,1999-08-03T06:30:00Z,27.8903,-94.0367,2.0,330.9456743,17.50257124,-99999.0,'11111222,11111222,99999999' 
TABS,ioos:station:wmo:42046:1,1999-08-03T07:00:00Z,27.8903,-94.0367,2.0,332.7788352,27.32654387,-99999.0,'11111222,11111222,99999999' 
TABS,ioos:station:wmo:42046:1,1999-08-03T07:30:00Z,27.8903,-94.0367,2.0,346.2843395,30.36593486,-99999.0,'11111222,11111222,99999999' 
TABS,ioos:station:wmo:42046:1,1999-08-03T09:00:00Z,27.8903,-94.0367,2.0,19.05480892,32.16224495,-99999.0,'11111222,11111222,99999999' 
TABS,ioos:station:wmo:42046:1,1999-08-03T09:30:00Z,27.8903,-94.0367,2.0,13.29236364,31.75059055,-99999.0,'11111222,11111222,99999999' 
TABS,ioos:station:wmo:42046:1,1999-08-03T10:00:00Z,27.8903,-94.0367,2.0,27.42029491,29.96664813,-99999.0,'11111222,11111222,99999999' 
TABS,ioos:station:wmo:42046:1,1999-08-03T10:30:00Z,27.8903,-94.0367,2.0,26.93664096,27.59365869,-99999.0,'11111222,11111222,99999999' 
TABS,ioos:station:wmo:42046:1,1999-08-03T11:00:00Z,27.8903,-94.0367,2.0,30.51037652,26.0,-99999.0,'11111222,11111222,99999999' 
TABS,ioos:station:wmo:42046:1,1999-08-03T11:30:00Z,27.8903,-94.0367,2.0,37.71983317,16.18177988,-99999.0,'11111222,11111222,99999999' 
TABS,ioos:station:wmo:42046:1,1999-08-03T12:00:00Z,27.8903,-94.0367,2.0,28.40203965,15.34731247,-99999.0,'11111222,11111222,99999999' 
TABS,ioos:station:wmo:42046:1,1999-08-03T12:30:00Z,27.8903,-94.0367,2.0,57.56751859,11.37409337,-99999.0,'11111222,11111222,99999999' 
TABS,ioos:station:wmo:42046:1,1999-08-03T13:00:00Z,27.8903,-94.0367,2.0,45.86379325,14.07302384,-99999.0,'11111222,11111222,99999999' 
TABS,ioos:station:wmo:42046:1,1999-08-03T13:30:00Z,27.8903,-94.0367,2.0,58.57050788,14.76651618,-99999.0,'11111222,11111222,99999999' 
TABS,ioos:station:wmo:42046:1,1999-08-03T14:00:00Z,27.8903,-94.0367,2.0,55.98873063,14.83846353,-99999.0,'11111222,11111222,99999999' 
TABS,ioos:station:wmo:42046:1,1999-08-03T14:30:00Z,27.8903,-94.0367,2.0,73.26855191,17.02057578,-99999.0,'11111222,11111222,99999999' 
TABS,ioos:station:wmo:42046:1,1999-08-03T15:00:00Z,27.8903,-94.0367,2.0,72.92362965,16.00562401,-99999.0,'11111222,11111222,99999999' 
TABS,ioos:station:wmo:42046:1,1999-08-03T15:30:00Z,27.8903,-94.0367,2.0,85.33315254,14.74889826,-99999.0,'11111222,11111222,99999999' 
TABS,ioos:station:wmo:42046:1,1999-08-03T16:00:00Z,27.8903,-94.0367,2.0,64.88522384,10.60235823,-99999.0,'11111222,11111222,99999999' 
TABS,ioos:station:wmo:42046:1,1999-08-03T16:30:00Z,27.8903,-94.0367,2.0,87.5104529,11.51086443,-99999.0,'11111222,11111222,99999999' 
TABS,ioos:station:wmo:42046:1,1999-08-03T17:00:00Z,27.8903,-94.0367,2.0,101.9908069,11.55205609,-99999.0,'11111222,11111222,99999999' 
TABS,ioos:station:wmo:42046:1,1999-08-03T17:30:00Z,27.8903,-94.0367,2.0,89.36340791,9.000555538,-99999.0,'11133222,11111222,99999999' 
TABS,ioos:station:wmo:42046:1,1999-08-03T18:00:00Z,27.8903,-94.0367,2.0,88.06941707,8.905054744,-99999.0,'11133222,11111222,99999999' 
TABS,ioos:station:wmo:42046:1,1999-08-03T18:30:00Z,27.8903,-94.0367,2.0,138.2891298,6.161980201,-99999.0,'11133222,11111222,99999999' 
TABS,ioos:station:wmo:42046:1,1999-08-03T19:00:00Z,27.8903,-94.0367,2.0,115.3013195,6.08358447,-99999.0,'11133222,11111222,99999999' 
TABS,ioos:station:wmo:42046:1,1999-08-03T19:30:00Z,27.8903,-94.0367,2.0,130.6011997,6.45368112,-99999.0,'11133222,11111222,99999999' 
TABS,ioos:station:wmo:42046:1,1999-08-03T20:00:00Z,27.8903,-94.0367,2.0,176.073891,10.22399139,-99999.0,'11111222,11111222,99999999' 
TABS,ioos:station:wmo:42046:1,1999-08-03T20:30:00Z,27.8903,-94.0367,2.0,147.6524217,7.102112362,-99999.0,'11133222,11111222,99999999' 
TABS,ioos:station:wmo:42046:1,1999-08-03T21:00:00Z,27.8903,-94.0367,2.0,154.6869649,8.185963596,-99999.0,'11133222,11111222,99999999' 
TABS,ioos:station:wmo:42046:1,1999-08-03T21:30:00Z,27.8903,-94.0367,2.0,186.9808306,4.936598019,-99999.0,'11133222,11111222,99999999' 
TABS,ioos:station:wmo:42046:1,1999-08-03T22:00:00Z,27.8903,-94.0367,2.0,151.3893968,7.517978452,-99999.0,'11133222,11111222,99999999' 
TABS,ioos:station:wmo:42046:1,1999-08-03T22:30:00Z,27.8903,-94.0367,2.0,191.3096956,7.138627319,-99999.0,'11133222,11111222,99999999' 
TABS,ioos:station:wmo:42046:1,1999-08-03T23:00:00Z,27.8903,-94.0367,2.0,167.5823728,11.16109314,-99999.0,'11111222,11111222,99999999' 
TABS,ioos:station:wmo:42046:1,1999-08-03T23:30:00Z,27.8903,-94.0367,2.0,181.8326248,12.50639836,-99999.0,'11111222,11111222,99999999' 
TABS,ioos:station:wmo:42046:1,1999-08-04T00:00:00Z,27.8903,-94.0367,2.0,190.0541016,14.3199162,-99999.0,'11111222,11111222,99999999' 
TABS,ioos:station:wmo:42046:1,1999-08-04T00:30:00Z,27.8903,-94.0367,2.0,161.2946234,13.40820644,-99999.0,'11111222,11111222,99999999' 
TABS,ioos:station:wmo:42046:1,1999-08-04T01:00:00Z,27.8903,-94.0367,2.0,178.2237494,12.90620006,-99999.0,'11111222,11111222,99999999' 
TABS,ioos:station:wmo:42046:1,1999-08-04T01:30:00Z,27.8903,-94.0367,2.0,165.2801642,12.20040983,-99999.0,'11111222,11111222,99999999' 
TABS,ioos:station:wmo:42046:1,1999-08-04T02:00:00Z,27.8903,-94.0367,2.0,167.4710111,9.219544457,-99999.0,'11133222,11111222,99999999' 
TABS,ioos:station:wmo:42046:1,1999-08-04T02:30:00Z,27.8903,-94.0367,2.0,185.9740989,8.646964785,-99999.0,'11133222,11111222,99999999' 
TABS,ioos:station:wmo:42046:1,1999-08-04T03:00:00Z,27.8903,-94.0367,2.0,183.1361406,7.310950691,-99999.0,'11133222,11111222,99999999' 
TABS,ioos:station:wmo:42046:1,1999-08-04T03:30:00Z,27.8903,-94.0367,2.0,188.6523111,9.305912099,-99999.0,'11133222,11111222,99999999' 
TABS,ioos:station:wmo:42046:1,1999-08-04T04:00:00Z,27.8903,-94.0367,2.0,231.0955316,7.324616031,-99999.0,'11133222,11111222,99999999' 
TABS,ioos:station:wmo:42046:1,1999-08-04T04:30:00Z,27.8903,-94.0367,2.0,200.1855453,7.244998275,-99999.0,'11133222,11111222,99999999' 
TABS,ioos:station:wmo:42046:1,1999-08-04T05:00:00Z,27.8903,-94.0367,2.0,226.4684816,8.275868534,-99999.0,'11133222,11111222,99999999' 
TABS,ioos:station:wmo:42046:1,1999-08-04T05:30:00Z,27.8903,-94.0367,2.0,260.3798738,5.98414572,-99999.0,'11133222,11111222,99999999' 
TABS,ioos:station:wmo:42046:1,1999-08-04T06:00:00Z,27.8903,-94.0367,2.0,295.2014856,1.878829423,-99999.0,'11133222,11111222,99999999' 
TABS,ioos:station:wmo:42046:1,1999-08-04T06:30:00Z,27.8903,-94.0367,2.0,286.6996261,4.176122604,-99999.0,'11133222,11111222,99999999' 
TABS,ioos:station:wmo:42046:1,1999-08-04T07:00:00Z,27.8903,-94.0367,2.0,297.8976267,7.694153625,-99999.0,'11133222,11111222,99999999' 
TABS,ioos:station:wmo:42046:1,1999-08-04T07:30:00Z,27.8903,-94.0367,2.0,283.6716961,3.807886553,-99999.0,'11133222,11111222,99999999' 
TABS,ioos:station:wmo:42046:1,1999-08-04T08:00:00Z,27.8903,-94.0367,2.0,331.5046385,3.98246155,-99999.0,'11133222,11111222,99999999' 
TABS,ioos:station:wmo:42046:1,1999-08-04T08:30:00Z,27.8903,-94.0367,2.0,342.0958048,6.830812543,-99999.0,'11133222,11111222,99999999' 
TABS,ioos:station:wmo:42046:1,1999-08-04T09:00:00Z,27.8903,-94.0367,2.0,309.0941884,4.123105626,-99999.0,'11133222,11111222,99999999' 
TABS,ioos:station:wmo:42046:1,1999-08-04T09:30:00Z,27.8903,-94.0367,2.0,353.5814387,8.050465825,-99999.0,'11133222,11111222,99999999' 
TABS,ioos:station:wmo:42046:1,1999-08-04T10:00:00Z,27.8903,-94.0367,2.0,9.377249225,11.04762418,-99999.0,'11111222,11111222,99999999' 
TABS,ioos:station:wmo:42046:1,1999-08-04T10:30:00Z,27.8903,-94.0367,2.0,25.88717619,7.558438992,-99999.0,'11133222,11111222,99999999' 
TABS,ioos:station:wmo:42046:1,1999-08-04T11:00:00Z,27.8903,-94.0367,2.0,38.88461596,7.964923101,-99999.0,'11133222,11111222,99999999' 
TABS,ioos:station:wmo:42046:1,1999-08-04T11:30:00Z,27.8903,-94.0367,2.0,49.02835948,10.06578363,-99999.0,'11111222,11111222,99999999' 
TABS,ioos:station:wmo:42046:1,1999-08-04T12:00:00Z,27.8903,-94.0367,2.0,44.2511852,21.63931607,-99999.0,'11111222,11111222,99999999' 
TABS,ioos:station:wmo:42046:1,1999-08-04T12:30:00Z,27.8903,-94.0367,2.0,55.23985591,22.2750982,-99999.0,'11111222,11111222,99999999' 
TABS,ioos:station:wmo:42046:1,1999-08-04T13:00:00Z,27.8903,-94.0367,2.0,36.08519912,14.6013698,-99999.0,'11111222,11111222,99999999' 
TABS,ioos:station:wmo:42046:1,1999-08-04T13:30:00Z,27.8903,-94.0367,2.0,47.46291615,13.16434579,-99999.0,'11111222,11111222,99999999' 
TABS,ioos:station:wmo:42046:1,1999-08-04T14:00:00Z,27.8903,-94.0367,2.0,45.60319501,13.43577314,-99999.0,'11111222,11111222,99999999' 
TABS,ioos:station:wmo:42046:1,1999-08-04T14:30:00Z,27.8903,-94.0367,2.0,62.03294989,12.79413928,-99999.0,'11111222,11111222,99999999' 
TABS,ioos:station:wmo:42046:1,1999-08-04T15:00:00Z,27.8903,-94.0367,2.0,65.35839562,11.99208072,-99999.0,'11111222,11111222,99999999' 
TABS,ioos:station:wmo:42046:1,1999-08-04T15:30:00Z,27.8903,-94.0367,2.0,60.06855815,7.615773106,-99999.0,'11133222,11111222,99999999' 
TABS,ioos:station:wmo:42046:1,1999-08-04T16:00:00Z,27.8903,-94.0367,2.0,56.08264878,13.978555,-99999.0,'11111222,11111222,99999999' 
TABS,ioos:station:wmo:42046:1,1999-08-04T16:30:00Z,27.8903,-94.0367,2.0,55.76822461,11.73243368,-99999.0,'11111222,11111222,99999999' 
TABS,ioos:station:wmo:42046:1,1999-08-04T17:00:00Z,27.8903,-94.0367,2.0,70.65571596,9.962429423,-99999.0,'11133222,11111222,99999999' 